Terug naar catalogus

STARLINK-11463

ActiefCommunicatieVLEO
NORAD 62066·PAYLOAD·🇺🇸 United States

Gelanceerd Nov 24, 2024 vanaf Vandenberg Space Force Base

Loading…

Volgende Passages (komende 24 uur)

TLE

VersSource: CelesTrak SupGP

Epoch: Sep 15, 2026, 02:55 UTC

1 62066C 24217K   26258.12201389 -.00091971  00000+0 -75736-3 0  2582
2 62066  53.1573 217.3883 0001188  82.2904  22.8081 15.69762805    12

Volg STARLINK-11463 in realtime met AllMySat

Download on the App Store